Header for Extended Forecast Station List Page

Search by: ID | Name | Date | Parm | Value | Avg | % Avg
Sort by: ID | Name | Date | Parm | Value | Avg | % Avg

Enter search or view all records.

Click on id for station plot
#IDNameDateParmValueAvg% Avg
0LYDM8KOOTENAI-LIBBY DAM07-21-2014INFLOW (KAF)1736178197
1LEOI1KOOTENAI-AT LEONIA07-21-2014DISCHARGE (KAF)2072227991
2BFEI1KOOTENAI-AT BONNERS FERRY07-21-2014STAGE (FT)MMM
3FCFM8NF FLATHEAD-NEAR COLUMBIA FALLS07-21-2014DISCHARGE (KAF)377321118
4WGCM8MF FLATHEAD-NEAR WEST GLACIER07-21-2014DISCHARGE (KAF)338267126
5HHWM8SF FLATHEAD-HUNGRY HORSE DAM07-21-2014INFLOW (KAF)302257117
6CFMM8FLATHEAD-AT COLUMBIA FALLS07-21-2014DISCHARGE (KAF)13561224111
7DLGM8CLARK FORK-AT DEER LODGE07-21-2014DISCHARGE (KAF)5145112
8DRMM8CLARK FORK-NR DRUMMOND07-21-2014DISCHARGE (KAF)139MM
9RCCM8ROCK CREEK-NEAR CLINTON07-21-2014DISCHARGE (KAF)7168104
10BONM8BLACKFOOT-NEAR BONNER07-21-2014DISCHARGE (KAF)181180101
11ABOM8CLARK FORK-ABOVE MISSOULA07-21-2014DISCHARGE (KAF)407392104
12BITM8BITTERROOT-NEAR MISSOULA07-21-2014DISCHARGE (KAF)288232124
13BELM8CLARK FORK-BELOW MISSOULA07-21-2014DISCHARGE (KAF)697630111
14STRM8ST. REGIS-NEAR ST. REGIS07-21-2014DISCHARGE (KAF)3431110
15SRGM8CLARK FORK-AT ST REGIS07-21-2014DISCHARGE (KAF)874826106
16KERM8FLATHEAD-KERR DAM07-21-2014INFLOW (KAF)15581454107
17NOXM8CLARK FORK-NOXON RAPIDS DAM07-21-2014INFLOW (KAF)2831296296
18CABI1CLARK FORK-CABINET GORGE DAM07-21-2014INFLOW (KAF)3100314499
19PRTI1PRIEST-NEAR PRIEST RIVER07-21-2014DISCHARGE (KAF)12516476
20ALFW1PEND OREILLE-ALBENI FALLS DAM07-21-2014INFLOW (KAF)3015341788
21HOPI1PEND OREILLE-PEND OREILLE LAKE NR HOPE07-21-2014LAKE ELEVATION (FT)MMM
22COEI1COEUR D ALENE-COEUR D ALENE LAKE07-21-2014INFLOW (KAF)251229110
23SPOW1SPOKANE-AT SPOKANE07-21-2014DISCHARGE (KAF)466MM
24LLKW1SPOKANE-AT LONGLAKE07-21-2014INFLOW (KAF)623604103
25SATI1ST MARIES-NEAR SANTA07-21-2014DISCHARGE (KAF)171799
26SJMI1ST JOE-AT ST MARIES07-21-2014STAGE (FT)MMM
27CIBW1COLUMBIA-AT INTL BOUNDARY07-21-2014DISCHARGE (KAF)23112MM
28LAUW1KETTLE-AT LAURIER07-21-2014DISCHARGE (KAF)12015975
29GCDW1COLUMBIA-GRAND COULEE DAM07-21-2014INFLOW (KAF)2389621275112
30CHJW1COLUMBIA-CHIEF JOSEPH DAM07-21-2014INFLOW (KAF)2353220520115
31TONW1OKANOGAN-NEAR TONASKET07-21-2014DISCHARGE (KAF)26331484
32PATW1METHOW-NEAR PATEROS07-21-2014DISCHARGE (KAF)11013581
33WELW1COLUMBIA-WELLS DAM07-21-2014INFLOW (KAF)2391420782115
34CHDW1CHELAN-LAKE CHELAN DAM07-21-2014INFLOW (KAF)19424978
35RRHW1COLUMBIA-ROCKY REACH DAM07-21-2014INFLOW (KAF)2415921324113
36ARDW1ENTIAT-NEAR ARDENVOIR07-21-2014DISCHARGE (KAF)323492
37PESW1WENATCHEE-AT PESHASTIN07-21-2014DISCHARGE (KAF)28429297
38WANW1COLUMBIA-WANAPUM DAM07-21-2014INFLOW (KAF)2446021595113
39PRWW1COLUMBIA-PRIEST RAPIDS DAM07-21-2014INFLOW (KAF)2446622037111
40KEDW1YAKIMA-KEECHELUS LAKE07-21-2014INFLOW (KAF)3527130
41KADW1KACHESS-KACHESS DAM07-21-2014INFLOW (KAF)2617150
42EASW1YAKIMA-AT EASTON07-21-2014DISCHARGE (KAF)11971167
43CLUW1CLE ELUM-CLE ELUM LAKE07-21-2014INFLOW (KAF)10177131
44TNAW1TEANAWAY-BELOW FORKS07-21-2014DISCHARGE (KAF)109103
45UMTW1YAKIMA-AT UMTANUM07-21-2014DISCHARGE (KAF)634528120
46BUDW1BUMPING-BUMPING LAKE DAM07-21-2014INFLOW (KAF)2422110
47CLFW1NACHES-NEAR CLIFFDEL07-21-2014DISCHARGE (KAF)658577
48RILW1TIETON-RIMROCK LAKE NEAR RIMROCK07-21-2014INFLOW (KAF)8267124
49NACW1NACHES-NEAR NACHES07-21-2014DISCHARGE (KAF)134121111
50PARW1YAKIMA-NEAR PARKER07-21-2014DISCHARGE (KAF)365163224
51KIOW1YAKIMA-AT KIONA07-21-2014DISCHARGE (KAF)627461136
52IPDI1HENRYS FORK-ISLAND PARK DAM07-21-2014INFLOW (KAF)10814475
53CHEI1FALLS-NEAR CHESTER07-21-2014DISCHARGE (KAF)8378106
54ANTI1HENRYS FORK-AT ST. ANTHONY07-21-2014DISCHARGE (KAF)26531983
55TEAI1TETON-NEAR ST. ANTHONY07-21-2014DISCHARGE (KAF)14516588
56REXI1HENRYS FORK-AT REXBURG07-21-2014DISCHARGE (KAF)32937588
57JLKW4SNAKE-JACKSON LAKE AT DAM07-21-2014INFLOW (KAF)15516495
58JKSW4SNAKE-NEAR JACKSON07-21-2014DISCHARGE (KAF)66678385
59ALPW4SNAKE-NEAR ALPINE07-21-2014DISCHARGE (KAF)83293389
60PLDI1SF SNAKE-PALISADES DAM07-21-2014INFLOW (KAF)1177128691
61HEII1SNAKE-NEAR HEISE07-21-2014DISCHARGE (KAF)16261602102
62RIDI1WILLOW CREEK-RIRIE DAM07-21-2014INFLOW (KAF)2539
63SIFI1SNAKE-AB EAGLE ROCK NR IDAHO FALLS07-21-2014DISCHARGE (KAF)11981175102
64SHYI1SNAKE-NEAR SHELLEY07-21-2014DISCHARGE (KAF)1086930117
65SNAI1SNAKE-AT BLACKFOOT07-21-2014DISCHARGE (KAF)738577128
66BFTI1SNAKE-NEAR BLACKFOOT07-21-2014DISCHARGE (KAF)704571123
67PIHI1PORTNEUF-AT POCATELLO07-21-2014DISCHARGE (KAF)263084
68AFRI1SNAKE-AMERICAN FALLS RESERVOIR07-21-2014INFLOW (KAF)13011226106
69MILI1SNAKE-AT MILNER07-21-2014DISCHARGE (KAF)185148125
70HOTI1BRUNEAU-NEAR HOT SPRINGS07-21-2014DISCHARGE (KAF)62229
71SWAI1SNAKE-BELOW SWAN FALLS07-21-2014DISCHARGE (KAF)1781208386
72HWRI1BIG LOST-AT HOWELL RANCH NEAR CHILLY07-21-2014DISCHARGE (KAF)234058
73MACI1BIG LOST-MACKAY RESERVOIR NEAR MACKAY07-21-2014INFLOW (KAF)3328117
74HALI1BIG WOOD-AT HAILEY07-21-2014DISCHARGE (KAF)375865
75MAGI1BIG WOOD-MAGIC DAM07-21-2014INFLOW (KAF)112840
76LWRI1LITTLE WOOD-LITTLE WOOD DAM07-21-2014INFLOW (KAF)91558
77OWYO3OWYHEE-BELOW OWYHEE DAM07-21-2014INFLOW (KAF)235144
78ARAI1SF BOISE-ANDERSON RANCH DAM07-21-2014INFLOW (KAF)697394
79LUCI1BOISE-LUCKY PEAK DAM07-21-2014INFLOW (KAF)301MM
80BIGI1BOISE-AT GLENWOOD BRIDGE07-21-2014DISCHARGE (KAF)10014569
81PARI1BOISE-NEAR PARMA07-21-2014DISCHARGE (KAF)15921973
82WRMO3MALHEUR-WARM SPRINGS DAM07-21-2014INFLOW (KAF)54117
83BERO3MALHEUR-AGENCY VALLEY DAM07-21-2014INFLOW (KAF)87115
84BULO3BULLY CREEK-BULLY CREEK DAM07-21-2014INFLOW (KAF)0041
85VALO3MALHEUR-NEAR VALE07-21-2014DISCHARGE (KAF)32610
86CSDI1NF PAYETTE-CASCADE DAM07-21-2014INFLOW (KAF)7466112
87DEDI1DEADWOOD-NEAR LOWMAN07-21-2014INFLOW (KAF)172082
88EMMI1PAYETTE-NEAR EMMETT07-21-2014DISCHARGE (KAF)28840471
89WSRI1WEISER-NEAR WEISER07-21-2014DISCHARGE (KAF)435185
90WEII1SNAKE-AT WEISER07-21-2014DISCHARGE (KAF)2490305082
91BRNI1SNAKE-BROWNLEE DAM07-21-2014INFLOW (KAF)2627310585
92WHBI1SALMON-AT WHITEBIRD07-21-2014DISCHARGE (KAF)1205126096
93TRYO3GRANDE RONDE-TROY07-21-2014DISCHARGE (KAF)18920393
94ANAW1SNAKE-NEAR ANATONE07-21-2014DISCHARGE (KAF)4060470086
95ORFI1CLEARWATER-AT OROFINO07-21-2014DISCHARGE (KAF)564517109
96DWRI1NF CLEARWATER-DWORSHAK DAM07-21-2014INFLOW (KAF)427373115
97SPDI1CLEARWATER-AT SPALDING07-21-2014DISCHARGE (KAF)19591038189
98LGDW1SNAKE-LOWER GRANITE DAM07-21-2014INFLOW (KAF)60205801104
99LGSW1SNAKE-LITTLE GOOSE DAM07-21-2014INFLOW (KAF)60255842103
100LMNW1SNAKE-LOWER MONUMENTAL DAM07-21-2014INFLOW (KAF)60385859103
101IHDW1SNAKE-ICE HARBOR DAM07-21-2014INFLOW (KAF)60385766105
102TCHW1WALLA WALLA-NEAR TOUCHET07-21-2014DISCHARGE (KAF)91178
103MCDW1COLUMBIA-MCNARY DAM07-21-2014INFLOW (KAF)3121928647109
104GIBO3UMATILLA-NEAR GIBBON07-21-2014DISCHARGE (KAF)1412112
105PDTO3UMATILLA-AT PENDLETON07-21-2014DISCHARGE (KAF)1613125
106MYKO3MCKAY CREEK-NEAR PILOT ROCK07-21-2014DISCHARGE (KAF)11109
107UMAO3UMATILLA-NEAR UMATILLA07-21-2014DISCHARGE (KAF)3912318
108MONO3NF JOHN DAY-AT MONUMENT07-21-2014DISCHARGE (KAF)323688
109SERO3JOHN DAY-AT SERVICE CK07-21-2014DISCHARGE (KAF)506182
110JDAO3COLUMBIA-JOHN DAY DAM07-21-2014INFLOW (KAF)3166029137109
111MODO3DESCHUTES-AT MOODY NR BIGGS07-21-2014DISCHARGE (KAF)1073110097
112TDAO3COLUMBIA-THE DALLES DAM07-21-2014INFLOW (KAF)3225029517109
113PITW1KLICKITAT-NEAR PITT07-21-2014DISCHARGE (KAF)18819198
114HODO3HOOD-NEAR TUCKER BRIDGE07-21-2014DISCHARGE (KAF)11697120
115UNDW1WHITE SALMON-NEAR UNDERWOOD07-21-2014DISCHARGE (KAF)157158100
116BONO3COLUMBIA-BONNEVILLE DAM07-21-2014INFLOW (KAF)32720MM